Regional Weather Roundup
Issued by NWS

Home | Current Version | Previous Version | Graphics & Text | Print | Product List | Glossary On
Versions: 1 2 3 4 5 6 7 8 9 10 11 12 13 14 15 16 17 18 19 20 21 22 23 24 25 26 27 28 29 30 31 32 33 34 35 36 37 38 39 40 41 42 43 44 45 46 47 48 49 50
962
ASUS43 KIND 231959
RWRIN

WEATHER ROUNDUP FOR INDIANA
NATIONAL WEATHER SERVICE INDIANAPOLIS IN
300 PM EST FRI FEB 23 2018

NOTE: "FAIR" INDICATES FEW OR NO CLOUDS BELOW 12,000 FEET WITH NO
SIGNIFICANT WEATHER AND/OR OBSTRUCTIONS TO VISIBILITY.

* - STATION DOES NOT REPORT WEATHER SUCH AS PRECIPITATION OR FOG.

+ - STATION NOT QUALITY CONTROLLED BY THE NATIONAL WEATHER SERVICE.
    USE DATA WITH CAUTION...ESPECIALLY DEWPOINT AND RELATIVE
    HUMIDITY OBSERVATIONS.

INZ001>003-010>013-019-020-232100-
NORTHWEST INDIANA

CITY           SKY/WX    TMP DP  RH WIND       PRES   REMARKS
GARY /AIRPORT/ CLOUDY    43  37  81 W22       30.20
MONTICELLO +   CLOUDY    45  44  94 W14G21    30.21S
RENSSELAER +   CLOUDY    43  37  81 SW13G18   30.21S

$$

LMZ046-743>745-232100-
SOUTHERN LAKE MICHIGAN

STATION/POSITION TIME  TEMP    WIND        PRES    WAVE
                       AIR SEA DIR/SP/G            HT
                 (UTC) (F)     (DEG/KT/KT) (MB)    (FT)
BURNS HARBOR     1940   40     260/ 15/ 18 1022.7R
MICHIGAN CITY    1930   37     220/ 13/ 14   N/A

$$

INZ004-005-014>016-021>024-232100-
NORTH CENTRAL INDIANA

CITY           SKY/WX    TMP DP  RH WIND       PRES   REMARKS
ELKHART        CLOUDY    46  43  87 W12       30.16R
GOSHEN         CLOUDY    47  44  90 W14       30.17R
PERU/GRISSOM   CLOUDY    48  48 100 W17       30.19R
SOUTH BEND     CLOUDY    43  41  93 W10       30.17S
WARSAW +       CLOUDY    45  43  93 E8        30.17S

$$

INZ006>009-017-018-025>027-232100-
NORTHEAST INDIANA

CITY           SKY/WX    TMP DP  RH WIND       PRES   REMARKS
AUBURN +       CLOUDY    46  45  93 W14G21    30.17R
FORT WAYNE     CLOUDY    51  48  89 W15       30.18R
KENDALLVILLE + CLOUDY    46  46 100 W15G21    30.15S

$$

INZ028-029-035-036-043>045-051>053-232100-
WEST CENTRAL INDIANA

CITY           SKY/WX    TMP DP  RH WIND       PRES   REMARKS
GREENCASTLE +  CLOUDY    50  45  81 W6        30.24S
LAFAYETTE      CLOUDY    46  43  89 W15       30.22S
TERRE HAUTE    CLOUDY    52  46  80 W6        30.23F

$$

INZ030>032-037>040-046>048-054>057-064-065-232100-
CENTRAL INDIANA

CITY           SKY/WX    TMP DP  RH WIND       PRES   REMARKS
COLUMBUS       CLOUDY    57 N/A N/A SW7       30.22F
GREENWOOD *+   CLOUDY    54 -39   2 SW6       30.21F
INDIANAPOLIS   CLOUDY    54  49  83 W9        30.21F
-EAGLE CREEK   CLOUDY    54  47  77 VRB6      30.19F
KOKOMO +       CLOUDY    49  46  90 W14       30.21R
MT COMFORT *+  PTSUNNY   54  54 100 SW12      30.20F
SHELBYVILLE    CLOUDY    57  51  80 W12       30.20F

$$

INZ033-034-041-042-049-050-058-059-232100-
EAST CENTRAL INDIANA

CITY           SKY/WX    TMP DP  RH WIND       PRES   REMARKS
MUNCIE         CLOUDY    57  50  77 W12       30.19S
RICHMOND +     CLOUDY    55  54  94 W15       30.21S

$$

INZ060-061-067>069-081>083-085>088-232100-
SOUTHWEST INDIANA

CITY           SKY/WX    TMP DP  RH WIND       PRES   REMARKS
EVANSVILLE     CLOUDY    53  51  93 CALM      30.25S
HUNTINGBURG +  CLOUDY    54  51  90 W5        30.25S

$$

INZ062-063-066-070>080-084-089>092-232100-
SOUTH CENTRAL AND SOUTHEAST INDIANA

CITY           SKY/WX    TMP DP  RH WIND       PRES   REMARKS
BLOOMINGTON    CLOUDY    54  50  86 SW6       30.21F
FRENCH LICK *+ PTSUNNY   52 N/A N/A W8        30.25S
SEYMOUR +      CLOUDY    57  54  88 SW5       30.22F

$$





USA.gov is the U.S. government's official web portal to all federal, state and local government web resources and services.